{"data":{"norad_id":59619,"intl_designator":"2024-080U","name":"STARLINK-31777","alt_names":[],"object_type":"PAYLOAD","status":"ACTIVE","operator":null,"country":"US","launch_date":"2024-04-28","launch_site_code":"AFETR","launch_vehicle":null,"mission":null,"orbit_class":"UNKNOWN","rcs_meters":null,"size_class":null,"mass_kg":null,"dimensions":null,"purposes":["comms"],"wikipedia_slug":null,"has_3d_model":false,"image_url":null,"decayed_at":null,"tle_current":{"epoch":"2026-05-24T21:34:21.230112Z","epoch_age_seconds":90546,"freshness":"FRESH","line1":"1 59619U 24080U   26144.89885683  .00007463  00000+0  28049-3 0  9991","line2":"2 59619  43.0038 331.3400 0001035 292.7943  67.2799 15.27572846116149","mean_motion":15.27572846,"eccentricity":0.0001035,"inclination_deg":43.0038,"raan_deg":331.34,"arg_perigee_deg":292.7943,"mean_anomaly_deg":67.2799,"bstar":0.00028049,"rev_number":11614,"period_min":94.267190188061,"perigee_km":482.3603827948,"apogee_km":483.78065275098,"semimajor_km":6861.2075177729,"source":"CELESTRAK","updated_at":"2026-05-25T13:38:19.011502Z"}}}